Wind_Speed
40 41 41 41 41 41 41 40 40 40 40 39 38 38 38 39 39 39 38 39 41 41 42 44 45 47 49 49 51 52 52 52 51 50 51 51 52 52 53 53 54 54 54 54 54 53 53 53 52 53 53 51 50 50 49 48 49 50 50 51 52 52 52 52 52 53 53 54 54 54 53 53 53 53 53 53 52 52 52 51 51 51 52 52 52
42 42 43 43 43 43 43 43 43 43 42 41 40 40 40 40 39 40 39 38 40 41 41 42 44 46 47 48 50 52 52 53 53 53 54 54 54 55 55 56 56 57 56 55 56 55 54 53 52 52 51 50 49 48 48 47 48 48 48 49 50 50 51 50 50 51 51 51 52 52 52 52 52 51 51 50 50 50 50 50 50 51 51 52 52
47 46 45 45 45 45 46 46 46 46 46 45 43 42 42 42 41 41 41 40 39 41 41 42 44 45 46 47 49 50 51 52 52 53 55 55 56 57 58 57 57 59 58 57 56 55 53 52 51 51 51 50 50 49 49 49 49 49 49 50 50 50 50 50 49 50 51 51 51 51 51 51 51 51 50 50 50 50 50 51 51 52 52 53 53
50 49 49 48 48 48 49 49 49 49 49 48 47 46 45 44 44 44 44 43 42 43 43 43 45 46 46 47 48 48 48 49 51 52 53 55 56 57 58 59 59 60 59 57 56 54 53 52 52 52 52 52 52 52 51 51 51 51 51 51 51 51 51 50 50 51 51 51 51 52 53 53 52 51 51 51 51 51 52 52 52 53 53 53 53
52 52 52 52 52 52 52 52 53 53 53 52 51 50 49 48 47 47 48 48 47 47 46 46 47 47 47 48 48 48 47 48 49 49 50 53 54 56 58 58 57 58 58 58 57 55 54 53 53 53 53 54 53 53 53 53 53 53 53 53 53 53 53 52 52 52 53 53 53 54 54 54 53 52 51 52 52 52 53 52 53 53 53 53 53
54 55 55 55 56 56 57 57 56 56 56 56 55 54 52 52 51 51 51 51 51 51 50 50 51 51 50 50 49 49 48 48 48 48 50 51 53 55 57 57 56 57 59 59 57 57 56 56 56 56 56 56 55 55 55 55 56 55 55 55 56 56 56 55 54 55 55 55 55 56 56 54 54 53 53 54 54 53 53 53 54 54 54 54 54
57 56 57 58 58 58 59 59 58 58 58 58 58 58 57 56 54 54 54 54 55 55 54 54 54 55 54 53 52 51 50 50 49 50 51 52 52 54 56 56 57 58 59 59 57 58 59 58 59 60 59 57 57 57 57 56 56 56 56 56 57 57 58 58 57 56 57 57 57 57 56 56 55 54 55 55 55 55 55 55 55 55 55 55 55
58 57 57 58 58 59 59 59 59 60 61 61 61 61 60 59 58 57 57 57 57 58 58 57 58 58 58 57 56 54 53 52 52 52 53 54 53 53 54 55 56 57 59 59 58 59 60 59 60 60 60 59 58 58 58 57 56 56 56 57 58 58 58 59 58 58 59 59 59 59 58 58 57 57 57 57 57 57 56 56 56 56 56 56 56
59 57 56 55 55 57 59 60 60 61 62 62 62 62 62 61 61 60 60 59 60 60 61 61 61 61 61 60 59 58 57 55 55 55 56 56 56 55 55 55 56 57 58 58 58 59 60 59 60 60 59 59 59 59 59 57 57 57 56 57 58 58 59 59 58 58 59 60 60 60 60 59 59 59 58 58 58 57 57 57 57 58 58 58 57
61 58 55 53 53 54 57 59 61 62 63 64 65 64 64 64 64 64 64 63 63 63 63 64 64 64 64 63 63 62 60 59 58 58 58 59 58 58 57 56 57 58 57 57 58 59 59 59 60 61 60 60 60 60 60 59 58 58 57 57 58 58 59 59 59 59 60 61 62 61 61 60 60 59 59 59 58 58 58 58 59 59 59 59 58
64 62 59 58 57 57 58 60 61 63 65 66 67 68 69 69 69 69 69 67 66 65 65 66 67 67 67 67 66 65 63 62 62 61 61 62 62 61 60 58 58 59 58 58 58 58 59 60 61 61 61 61 61 61 61 61 60 59 58 58 58 59 59 60 60 60 61 62 62 62 61 60 60 59 59 59 59 60 61 60 60 60 61 60 59
65 65 65 64 63 61 61 62 64 64 66 68 70 72 73 74 73 73 73 71 70 68 68 68 69 69 69 69 69 68 67 66 65 64 64 65 65 64 63 62 61 61 60 60 60 60 61 61 62 62 62 63 62 62 63 63 62 61 59 59 59 60 61 61 61 61 61 62 62 62 61 61 60 60 59 60 60 61 62 62 61 60 60 60 58
64 66 67 67 67 65 64 64 65 65 66 67 70 72 74 76 76 75 75 74 73 72 72 72 72 72 71 71 70 70 69 69 69 68 68 68 68 68 67 66 65 64 63 62 62 62 63 63 63 64 63 64 64 64 64 65 64 63 61 61 61 61 61 62 62 62 62 62 62 63 62 61 61 61 61 61 62 62 63 64 62 59 59 59 57
64 65 66 68 68 68 67 66 66 65 65 66 66 68 70 73 75 76 76 76 74 74 75 76 76 75 74 73 73 72 72 72 72 72 72 71 71 71 70 70 69 67 66 66 65 65 65 64 65 66 65 65 65 65 66 66 66 65 64 63 63 63 63 63 64 64 63 63 64 64 63 63 63 62 63 63 63 64 64 64 62 58 58 58 56
65 65 66 67 68 69 69 68 67 66 66 66 65 65 66 68 71 73 75 76 76 75 75 76 77 77 77 76 76 76 76 76 76 76 76 75 75 74 74 73 73 71 70 70 70 69 68 66 66 67 67 67 67 68 68 68 68 68 66 65 64 65 65 65 65 65 65 65 65 65 64 64 64 63 63 64 64 64 64 64 62 58 58 59 56
65 65 66 66 67 68 68 69 69 68 67 67 66 65 66 67 68 70 73 75 77 78 77 77 76 75 76 77 78 78 78 77 77 78 79 79 78 77 77 77 76 75 74 73 73 72 72 70 69 69 68 68 69 69 69 69 70 70 69 67 66 66 67 67 67 67 67 67 67 67 66 65 65 64 64 65 64 64 65 65 63 60 59 60 58
65 66 66 66 67 67 68 68 69 69 69 69 68 68 67 67 67 69 71 74 77 80 81 81 79 78 77 77 77 77 76 77 77 78 79 80 81 81 80 79 79 78 77 77 76 75 74 74 72 71 70 68 68 68 68 68 70 71 70 69 68 68 69 69 69 69 69 69 69 69 69 67 67 66 66 66 66 66 66 66 65 62 60 62 60
66 67 67 67 68 68 68 68 69 69 70 70 71 71 70 70 69 69 70 72 74 77 81 83 83 83 83 81 79 76 75 75 76 77 78 79 81 82 82 81 81 80 80 79 79 78 77 76 75 74 72 70 69 68 68 68 69 70 70 69 69 70 70 70 70 71 71 72 71 71 71 70 69 68 67 68 67 67 67 67 67 64 63 63 62
67 68 68 69 69 69 69 69 69 70 70 71 72 72 73 73 73 72 72 72 73 74 77 81 84 86 87 85 83 81 79 77 77 77 78 79 79 80 81 82 82 82 81 81 81 81 80 79 78 77 75 73 71 70 70 69 69 69 68 68 68 70 71 71 71 72 73 74 73 73 73 72 71 70 70 69 69 69 69 69 69 67 65 65 65
68 68 69 69 70 70 70 70 71 71 71 72 72 73 73 74 75 75 74 74 74 74 75 78 81 84 86 86 86 86 85 84 82 80 80 79 79 80 81 81 82 83 84 84 84 84 83 82 81 79 78 77 74 72 72 72 71 71 70 69 68 69 70 71 71 72 73 74 74 73 73 73 73 72 72 71 71 71 71 71 71 70 68 67 67
70 70 71 71 71 72 72 72 73 74 74 74 74 74 74 75 75 75 76 76 76 75 75 76 78 80 82 84 85 87 88 89 88 86 84 82 80 80 81 82 83 84 85 85 86 87 86 85 83 82 80 80 78 77 76 75 74 74 73 73 72 71 71 72 72 73 74 74 74 73 73 73 74 74 73 73 73 73 73 72 72 72 71 70 69
72 72 72 72 73 73 74 74 75 76 76 76 76 75 75 74 74 75 76 76 76 76 76 77 77 78 79 80 82 83 85 87 88 88 88 87 85 83 82 82 83 84 85 85 85 86 87 87 86 84 82 81 81 80 79 79 78 77 76 76 76 75 75 75 75 75 75 76 77 76 74 72 73 74 74 74 75 74 74 74 74 74 73 72 72
74 74 75 75 75 76 76 76 75 76 76 76 76 75 75 74 74 74 75 76 76 76 76 76 76 76 77 78 79 79 81 83 85 86 88 89 90 88 87 85 84 84 85 85 85 85 85 86 86 85 83 81 81 81 81 81 80 79 79 78 78 78 78 78 78 77 77 78 79 79 78 75 74 74 73 74 75 75 76 76 75 75 75 74 74
73 73 74 74 75 75 75 74 74 74 74 74 75 75 76 76 75 75 75 75 76 76 76 75 74 74 75 76 76 77 77 78 80 83 85 87 90 92 92 91 89 87 86 85 86 85 85 85 85 85 83 82 81 82 82 82 81 80 80 80 80 80 80 80 80 79 78 79 80 80 80 80 79 77 75 75 75 75 76 76 77 77 77 76 76
69 70 71 72 72 73 74 74 74 75 76 76 76 76 76 76 76 76 75 74 75 75 75 75 74 74 74 74 75 75 76 76 76 78 80 82 86 90 94 95 95 93 90 88 87 86 86 85 85 85 85 84 83 83 83 82 81 82 81 81 82 82 82 82 81 80 79 79 79 80 80 82 83 82 80 79 77 77 77 77 78 79 79 79 78
69 69 70 71 72 73 74 75 75 76 76 77 77 77 77 76 76 76 75 75 75 75 75 75 75 75 75 74 74 74 75 75 75 75 76 77 79 83 88 93 97 98 96 93 90 88 87 86 86 86 86 86 86 85 84 83 82 82 82 83 83 84 83 83 82 81 80 79 79 78 79 81 84 85 84 83 82 82 82 81 81 81 81 81 80
69 69 70 70 71 72 73 73 74 75 75 76 77 78 78 78 77 77 76 76 76 75 75 76 76 75 75 75 75 74 74 74 74 75 75 75 76 77 80 84 90 95 98 98 97 94 90 88 87 86 86 86 87 87 86 85 84 84 84 84 85 85 84 83 82 81 80 79 79 79 79 80 82 83 85 86 86 86 86 85 85 85 84 84 83
73 74 74 75 75 76 76 76 77 77 77 78 79 80 81 81 80 79 78 78 78 77 76 75 76 76 76 76 76 75 74 74 74 74 74 75 75 75 76 77 80 85 90 94 97 98 97 94 90 88 87 87 87 87 87 87 86 86 86 87 87 87 86 85 84 83 82 81 81 81 81 82 82 82 83 86 87 87 86 86 85 86 86 85 84
77 78 79 79 80 80 81 81 81 82 82 83 83 84 85 84 84 84 83 82 81 79 78 76 76 76 76 77 76 76 75 75 74 74 74 74 75 75 75 75 76 78 81 84 88 92 95 96 95 93 90 88 87 87 88 88 88 88 88 88 89 89 89 88 88 88 87 87 86 85 84 83 83 83 84 86 87 87 86 84 82 81 80 79 77
77 77 78 79 80 81 82 83 84 85 86 86 87 88 88 88 87 87 87 86 85 83 81 79 77 76 76 77 77 76 76 75 75 75 75 75 75 75 75 76 76 77 78 79 81 83 86 89 92 94 94 93 92 90 89 89 90 90 90 90 90 90 90 90 90 90 90 90 89 88 87 85 84 84 84 85 85 84 83 80 77 75 75 74 74
79 78 78 79 80 81 82 84 85 86 87 88 89 91 91 90 89 89 89 89 88 87 85 83 80 78 77 76 76 76 76 76 75 75 76 76 75 76 76 76 77 77 78 78 79 80 81 82 84 87 90 92 94 94 93 92 92 92 92 93 93 93 93 92 92 92 91 90 89 88 88 87 86 85 85 85 84 83 81 79 77 77 77 76 76
85 85 85 85 85 85 86 86 86 87 88 89 90 91 91 90 90 91 91 91 90 90 88 86 83 81 79 78 76 76 76 76 76 75 75 75 76 76 76 77 77 78 78 79 79 80 80 81 82 83 84 86 88 91 94 95 95 95 95 95 95 95 95 95 95 94 93 91 90 88 87 87 87 87 87 87 86 85 84 83 82 81 81 80 80
87 88 89 88 88 87 86 86 85 84 85 86 86 87 87 86 87 89 90 91 91 91 90 88 86 83 82 80 78 77 76 76 76 75 75 75 75 75 76 76 77 77 78 79 79 80 80 81 82 83 83 84 85 86 88 91 94 96 97 98 98 97 97 96 97 96 96 95 93 91 90 89 88 89 89 89 89 89 88 87 87 86 84 84 83
81 82 82 81 81 80 79 78 77 76 76 76 76 76 76 76 77 80 83 85 87 88 88 88 87 85 83 82 80 79 77 76 75 75 75 74 74 75 75 76 76 77 78 78 79 80 81 81 82 83 83 83 84 85 86 87 89 91 94 97 99 100 101 100 99 98 97 97 97 96 95 94 92 91 91 91 91 91 91 91 90 90 88 87 86
71 72 72 71 70 69 68 66 66 66 66 65 65 64 64 64 65 67 70 73 77 80 82 83 83 82 82 81 81 80 78 77 75 74 74 73 73 74 74 75 76 76 77 78 79 79 80 81 82 83 84 84 84 84 85 86 88 89 91 93 95 97 99 101 102 101 100 99 98 98 98 97 97 96 95 95 94 94 93 92 91 90 89 89 88
64 64 64 63 62 60 59 58 59 58 58 58 57 55 54 54 55 57 58 60 64 67 70 73 74 74 75 75 76 76 76 75 73 72 71 71 71 71 72 73 74 74 75 76 77 78 79 80 81 82 83 84 84 85 85 85 86 87 89 91 92 93 94 96 98 100 101 101 101 100 99 98 98 97 97 96 95 94 93 91 89 88 87 87 86
57 57 57 56 55 54 54 55 55 55 54 53 51 49 47 47 48 49 49 50 53 55 58 61 63 63 64 65 67 68 69 68 67 66 66 66 67 67 68 69 70 71 72 73 74 76 77 78 79 80 81 82 83 84 85 85 85 85 86 88 89 91 91 91 92 94 96 97 98 98 97 97 96 95 94 93 92 91 89 87 86 85 85 85 84
52 52 52 52 52 52 51 51 51 50 49 48 45 44 43 42 41 42 43 44 45 46 48 50 52 53 54 56 57 59 60 60 60 60 60 61 62 63 64 65 66 67 68 69 71 72 73 75 76 77 78 80 81 82 83 84 84 84 85 86 86 87 88 88 89 89 90 90 90 89 89 90 90 89 89 88 87 86 85 84 83 83 83 83 83
50 50 50 49 49 48 47 46 46 46 44 43 41 40 39 38 37 37 37 38 39 40 41 42 43 44 46 47 48 50 51 52 53 54 55 55 56 57 59 60 61 63 64 65 67 68 69 71 73 74 75 76 77 79 81 82 82 83 84 84 84 84 84 85 85 85 84 84 83 82 81 81 81 81 81 81 81 81 81 81 81 81 82 82 81
48 47 47 46 45 44 43 43 43 42 39 38 37 36 35 34 33 32 33 33 34 35 36 36 36 37 39 40 41 42 43 45 46 48 49 50 52 53 54 56 57 59 60 62 64 65 66 67 69 70 71 72 73 74 76 78 79 80 81 82 82 81 81 81 81 81 80 80 80 79 78 77 77 78 78 79 78 78 77 78 78 79 79 79 79
46 45 44 42 41 40 39 39 39 38 36 35 33 31 30 29 28 28 28 29 29 30 31 31 31 32 33 33 35 36 37 39 41 42 44 45 47 49 50 52 54 56 57 59 60 62 63 63 64 65 65 66 66 67 69 71 73 74 77 77 76 76 76 76 76 76 77 77 78 80 78 76 74 75 76 78 78 77 77 76 76 75 76 76 77
43 41 41 40 37 36 35 35 35 34 33 32 30 28 26 25 24 24 24 24 24 25 26 26 26 26 26 27 29 31 32 34 36 38 40 42 44 46 48 49 50 51 51 53 54 55 55 56 57 58 58 58 59 59 60 62 64 67 70 71 71 70 70 70 71 71 72 73 76 79 80 77 74 73 74 75 76 77 76 76 75 74 73 73 73
41 39 38 37 35 33 32 31 31 31 30 28 26 24 23 22 21 21 21 20 20 21 21 21 22 22 23 24 25 27 29 31 33 35 37 39 40 42 42 42 42 42 42 42 43 43 44 45 46 47 48 50 51 52 54 55 57 60 63 65 66 66 66 67 67 67 68 70 73 78 81 80 76 74 73 72 73 74 74 74 74 74 73 72 72
40 38 37 35 33 32 30 30 30 30 29 27 25 22 21 20 20 20 19 19 19 19 19 19 20 20 21 23 24 26 28 29 30 31 32 33 34 34 34 34 35 35 35 35 35 34 34 34 34 35 37 38 40 43 45 48 51 54 57 59 61 62 63 64 64 65 66 68 71 76 80 82 80 77 75 73 73 73 72 72 73 74 73 73 72
39 37 36 35 33 31 30 29 28 28 28 26 25 22 20 20 20 19 19 18 18 17 17 18 18 19 21 22 24 25 26 26 26 26 27 28 29 29 30 31 31 32 32 32 32 31 30 30 30 30 30 31 33 35 37 39 42 45 48 51 54 56 59 61 62 62 63 66 71 75 78 81 81 79 78 77 76 75 73 73 73 74 74 73 72
38 37 36 35 33 32 30 28 27 27 26 25 25 23 21 20 20 19 18 17 16 16 16 17 18 19 20 21 22 22 22 22 23 23 24 25 26 27 28 29 29 30 31 31 31 30 30 29 29 29 30 30 31 33 34 36 37 39 40 42 44 48 51 55 58 59 61 64 68 72 75 77 79 80 80 80 79 78 77 76 75 75 74 73 72
38 37 35 34 32 31 29 28 26 25 24 24 23 23 22 21 20 19 17 16 16 16 17 17 18 18 18 19 20 21 21 22 22 23 23 24 24 25 26 26 27 28 28 29 30 30 29 29 29 29 30 30 31 32 33 35 36 37 38 38 39 41 43 46 49 54 57 61 65 68 71 73 75 77 79 80 80 80 79 78 78 77 76 75 74
37 36 35 33 32 30 29 27 26 24 24 23 22 22 22 21 20 18 17 16 16 17 17 17 17 17 17 19 20 21 22 22 22 22 23 23 23 23 23 24 24 25 26 27 28 28 29 29 29 29 29 29 30 30 31 32 34 35 36 36 37 38 39 40 42 46 50 55 60 64 67 69 71 73 76 79 80 80 79 79 79 79 78 78 77
36 35 35 33 32 30 29 28 26 25 24 23 22 22 21 20 19 18 17 17 17 17 16 16 16 17 18 19 20 21 21 21 22 22 22 22 22 22 22 23 23 23 23 24 25 27 27 28 28 28 28 28 28 28 29 30 31 32 33 34 34 35 36 37 39 41 44 48 52 57 61 64 67 68 71 74 76 78 79 79 79 79 79 79 79
36 35 34 33 32 31 30 29 28 26 25 24 22 21 20 20 19 18 18 17 17 17 17 17 17 18 19 20 20 20 21 21 21 21 22 21 21 22 22 23 23 22 22 23 23 24 25 26 27 27 27 28 28 27 27 28 28 29 30 30 31 32 33 34 35 38 40 43 46 49 53 57 61 63 66 68 70 74 76 77 77 78 78 78 79
35 34 34 33 32 32 31 30 28 27 25 24 22 21 20 19 19 19 18 18 17 18 18 19 19 20 21 21 21 21 21 21 21 22 22 22 22 22 22 23 23 23 23 23 23 23 23 24 25 26 26 27 27 27 27 27 27 28 28 28 29 29 30 31 32 33 36 38 41 43 46 50 54 57 60 62 65 68 71 73 74 75 75 76 77
Wind_Direction
274 274 274 274 273 272 272 273 273 274 273 273 272 271 270 268 268 266 264 263 263 261 261 261 261 260 259 258 258 256 256 256 255 255 255 254 254 254 255 255 256 255 255 255 255 255 255 255 255 256 257 257 258 258 258 257 257 256 256 256 256 256 256 256 256 256 256 256 256 256 255 255 254 254 254 253 253 253 253 253 253 254 254 254 255
271 271 271 271 271 271 271 272 272 272 272 271 271 270 269 269 268 268 266 264 263 263 262 261 261 261 261 260 258 256 256 257 258 256 255 254 255 255 256 256 257 256 255 255 255 255 256 256 257 258 258 258 258 258 257 256 256 256 255 254 255 254 254 254 255 255 255 255 254 254 254 254 253 253 253 253 252 252 252 252 253 253 254 254 255
271 269 268 268 268 269 270 270 270 271 271 270 269 268 268 268 267 266 265 263 262 262 261 261 261 261 261 260 259 259 260 260 260 258 257 257 258 258 258 257 256 257 257 256 257 257 257 257 257 257 257 257 257 256 256 255 255 255 254 254 254 254 253 253 254 254 253 253 252 253 252 252 252 252 252 252 252 252 253 253 254 254 254 255 255
270 269 268 266 266 266 267 268 269 270 269 268 267 265 265 265 265 264 264 263 261 260 260 260 260 261 261 261 261 261 262 263 263 262 262 262 262 261 261 259 258 260 261 260 259 259 259 258 257 256 256 255 254 254 254 254 254 254 253 253 253 253 253 253 253 253 253 252 253 252 252 252 252 252 252 252 252 253 253 254 254 254 255 255 256
267 267 267 266 265 265 265 266 268 268 268 267 265 263 263 263 262 262 262 262 261 260 259 259 259 260 261 261 262 262 262 263 264 265 265 265 264 263 262 261 259 260 261 261 260 259 258 258 257 255 254 253 252 252 252 251 252 252 252 252 253 252 252 252 252 252 253 253 253 252 253 253 253 252 252 252 252 252 253 254 254 254 255 256 257
266 266 265 265 264 264 265 265 266 266 265 264 263 262 261 260 260 260 260 260 260 260 259 259 259 259 259 260 261 262 262 262 262 263 263 263 262 261 260 259 258 258 259 260 260 259 257 256 255 254 253 252 251 250 250 250 250 251 251 251 251 251 251 251 251 252 252 252 252 253 253 253 252 251 251 251 252 253 254 254 255 256 257 258 259
269 267 265 265 265 264 264 264 264 263 262 262 262 261 261 259 258 257 257 258 259 259 259 259 259 259 259 259 258 259 260 260 260 259 259 259 259 259 260 259 259 259 259 259 258 258 258 256 256 255 254 253 252 252 251 251 251 251 251 251 251 251 251 251 251 251 251 252 252 253 253 252 252 252 252 253 254 254 255 255 256 257 258 258 259
274 272 268 266 265 264 263 262 261 261 261 261 261 261 260 259 258 257 256 257 257 258 258 258 257 257 258 258 258 257 257 257 258 258 258 258 258 258 259 260 261 260 259 259 258 257 258 257 257 257 257 256 255 254 254 253 252 252 252 252 252 252 252 252 251 251 252 252 252 252 252 253 253 253 253 254 255 255 256 256 256 257 258 258 259
277 275 272 268 264 262 261 261 260 260 259 259 259 259 259 259 258 258 257 257 257 257 257 256 256 256 256 256 256 256 255 255 256 257 258 258 258 258 258 259 260 260 259 260 259 258 258 258 257 257 257 257 256 255 254 253 253 253 252 252 253 252 252 252 252 252 252 253 253 253 253 253 253 254 254 255 255 255 256 256 256 257 257 258 259
276 275 271 267 262 259 257 257 257 258 258 257 257 256 257 257 258 259 260 260 260 258 257 256 255 254 254 254 254 254 254 254 254 255 256 257 257 257 257 258 259 260 260 260 259 259 259 258 258 258 257 256 256 255 255 254 253 252 252 252 252 252 252 252 253 252 252 253 253 253 253 253 254 254 254 255 255 254 254 254 255 256 257 258 259
273 273 271 268 265 261 256 254 254 254 255 256 257 257 257 258 259 260 261 262 262 260 257 256 254 253 252 251 251 252 252 252 253 254 255 255 256 256 256 256 257 259 260 260 259 259 258 257 257 258 258 257 256 256 256 255 253 252 252 252 252 252 252 252 252 253 253 254 254 255 255 254 254 254 254 254 254 254 254 254 255 256 257 258 259
272 271 271 270 268 265 261 258 257 255 253 253 255 256 258 259 259 260 260 261 261 259 258 256 255 253 251 250 249 250 250 250 251 252 253 253 254 254 255 254 255 255 257 258 259 258 257 257 256 257 257 258 258 258 257 257 255 253 252 252 252 252 252 252 252 252 253 254 255 255 255 255 255 254 254 254 254 254 254 254 254 255 257 257 258
271 270 270 270 270 269 267 264 263 260 257 255 254 255 256 257 258 259 259 259 259 258 257 256 255 253 252 250 250 249 249 250 251 251 251 251 252 252 253 253 253 253 254 254 256 257 257 257 257 257 257 258 259 258 257 257 257 254 252 251 251 251 252 252 252 252 252 253 254 254 254 254 254 254 254 254 254 254 255 255 255 255 256 257 257
270 270 269 269 269 269 269 268 266 265 263 260 258 256 255 255 256 257 257 258 258 257 257 256 255 254 253 253 253 252 252 252 252 252 251 251 251 251 251 251 251 251 252 252 252 254 255 256 257 257 257 258 258 258 257 257 258 256 254 252 251 251 251 251 252 252 251 252 252 253 254 254 254 254 254 254 255 255 256 257 257 256 256 256 256
271 270 269 268 268 267 268 267 267 266 265 264 262 259 257 255 255 255 255 256 256 256 256 255 254 254 255 256 257 257 257 256 255 254 253 252 251 250 250 249 249 249 250 250 250 251 252 253 254 256 257 258 258 258 257 257 258 258 257 254 252 251 251 251 252 252 252 252 252 253 253 253 254 254 254 255 255 255 256 257 257 256 255 256 255
272 271 270 269 268 267 267 267 266 266 266 265 264 262 259 257 255 253 252 253 253 254 255 254 253 254 256 258 259 259 259 258 257 256 255 253 252 251 250 249 249 248 248 249 249 250 250 251 251 252 254 256 257 258 258 258 258 258 258 257 255 253 252 252 252 251 252 252 252 252 252 252 253 253 254 254 255 255 256 257 257 256 256 256 255
272 271 271 270 269 268 268 268 267 266 266 265 265 264 262 261 258 255 252 251 251 252 253 253 253 254 255 257 257 257 257 257 256 256 255 254 253 252 251 250 249 249 249 249 249 249 250 250 250 250 251 253 254 256 257 258 258 258 259 259 259 257 255 253 252 251 251 251 251 252 253 252 252 253 253 254 255 255 256 257 258 257 256 257 257
274 273 272 272 270 269 269 269 268 268 267 266 265 264 263 263 261 259 256 254 253 252 252 252 252 253 254 255 254 254 255 255 255 254 253 253 253 253 252 251 251 250 250 249 250 250 250 250 250 250 250 250 251 253 254 255 256 257 258 259 260 260 258 256 253 252 252 252 251 252 253 253 253 253 253 253 254 255 256 257 258 258 257 258 258
276 275 275 274 273 272 271 271 270 270 269 268 266 265 264 263 262 261 260 259 257 255 253 251 251 252 253 253 253 253 253 253 254 253 253 252 252 253 253 253 253 253 252 251 250 250 250 251 251 250 250 249 249 250 251 252 253 254 254 256 257 258 258 257 256 254 253 253 254 254 254 255 255 255 255 255 255 255 256 256 257 258 258 258 258
277 276 276 276 275 275 274 274 273 272 271 270 269 268 267 266 265 264 262 261 260 259 257 255 253 252 252 252 253 253 253 253 253 253 252 253 253 254 254 254 254 254 254 253 252 251 251 252 252 251 250 249 248 248 249 250 250 250 250 251 252 254 256 255 254 254 254 254 255 256 256 256 257 257 257 257 257 256 256 257 257 258 258 258 259
277 277 276 276 276 275 274 274 274 273 272 271 270 269 269 268 267 266 265 264 263 262 261 259 257 256 255 254 254 253 253 253 254 254 253 253 253 254 254 254 254 254 254 254 254 253 253 253 253 252 251 250 249 248 248 248 248 248 248 248 248 250 251 251 252 252 252 252 252 253 255 257 258 258 259 259 258 258 257 257 258 259 259 259 259
277 276 275 275 274 274 273 273 273 272 272 272 271 270 269 268 268 267 266 265 264 263 262 261 260 259 258 257 256 255 254 254 254 254 254 254 254 254 253 253 253 253 254 254 254 254 253 253 253 253 252 251 250 249 248 248 248 247 247 248 248 248 248 249 249 250 251 251 251 251 251 254 256 258 259 259 259 259 258 258 258 259 259 259 260
279 278 277 276 275 275 275 274 273 273 272 272 271 270 269 269 269 269 268 266 265 264 263 262 261 260 259 258 257 256 256 256 255 255 254 254 254 254 253 253 253 252 253 253 254 254 253 253 253 253 253 252 251 250 250 249 248 247 247 247 248 248 248 248 248 248 249 250 251 251 250 251 252 254 256 257 258 258 258 258 258 258 258 259 259
281 280 279 278 277 276 276 275 274 273 272 272 271 271 270 270 270 269 269 268 267 265 264 262 261 260 260 260 259 257 256 255 256 255 255 254 253 253 253 253 253 253 253 253 253 254 253 253 252 252 252 252 252 252 252 251 250 249 248 247 248 248 249 249 249 248 249 250 251 252 252 252 251 251 252 253 254 255 256 257 257 257 257 257 258
280 280 279 279 277 276 276 275 274 274 273 273 272 272 272 271 270 269 268 268 267 267 265 264 262 261 260 259 259 259 257 255 255 255 255 255 253 252 252 252 253 254 254 253 253 253 253 253 253 252 251 251 252 252 253 253 252 251 250 250 250 250 251 251 251 250 250 251 252 253 254 253 253 251 251 251 251 252 253 254 254 254 255 255 255
281 280 280 279 279 278 277 276 275 274 274 273 272 271 270 270 269 269 268 266 266 266 266 265 264 262 261 259 259 259 259 258 256 255 255 255 254 253 252 252 252 253 253 254 254 254 253 253 253 253 252 252 252 253 253 254 253 252 252 252 252 253 253 253 253 253 253 253 254 255 255 255 255 254 252 251 250 250 251 251 252 253 253 253 254
278 278 277 276 276 275 274 274 273 273 273 272 271 270 269 268 267 267 266 266 265 264 265 265 264 263 262 261 259 259 259 259 258 257 255 255 255 255 254 253 252 252 253 253 254 254 254 253 253 253 253 253 253 253 254 254 254 253 253 253 254 254 254 255 255 255 255 255 256 257 257 257 257 257 256 254 252 251 251 252 253 253 254 255 255
277 276 275 275 274 273 273 272 272 271 271 270 270 269 268 267 266 266 265 265 264 264 263 263 264 263 263 262 261 259 258 258 259 259 258 256 256 256 255 255 254 253 253 253 253 254 254 253 253 252 252 253 253 254 254 254 254 253 252 252 253 254 255 255 255 256 256 256 257 258 258 258 258 258 258 256 254 253 252 252 253 254 255 255 256
279 278 277 276 276 275 274 273 272 271 270 269 269 268 268 267 267 266 266 265 264 264 263 262 262 262 262 262 261 260 259 258 258 258 258 258 257 257 257 256 256 255 254 254 254 254 254 253 253 252 252 251 251 252 253 253 253 252 251 251 251 252 253 254 255 256 257 257 257 258 258 258 258 258 257 255 254 253 252 252 251 252 253 253 254
284 283 282 281 279 278 277 275 274 272 271 270 269 268 267 267 267 267 266 265 265 264 263 262 261 261 261 262 261 261 260 259 258 258 258 258 258 258 258 258 258 257 256 255 255 255 255 254 254 253 253 252 251 250 250 251 251 252 251 250 250 250 251 252 253 254 255 255 256 256 256 256 255 255 254 253 253 252 251 250 249 249 250 252 253
289 288 287 286 284 283 281 279 278 276 274 272 270 269 268 267 267 267 266 265 265 264 263 262 261 261 260 260 261 261 260 259 259 258 258 258 258 258 258 258 258 258 258 257 257 256 256 256 255 255 254 253 252 251 249 248 248 249 250 250 250 250 250 250 251 251 252 252 252 253 252 252 252 251 251 250 250 249 248 248 249 251 253 254 254
291 290 289 288 287 286 285 284 282 281 279 276 274 271 269 268 268 267 267 266 265 264 264 263 261 261 260 260 260 260 260 260 259 259 259 258 258 258 258 258 258 259 259 259 258 258 257 257 257 256 256 255 254 253 252 250 248 248 248 249 249 249 250 250 250 250 250 250 250 249 249 249 249 249 249 248 248 248 248 249 250 253 255 256 255
291 291 290 290 290 289 288 287 286 284 283 281 279 277 274 272 270 268 267 266 265 265 264 263 262 261 260 260 259 259 259 260 260 260 259 259 259 259 259 259 259 259 259 259 259 259 259 259 258 258 257 257 256 256 255 254 252 250 249 248 248 248 249 249 249 249 250 249 249 249 248 248 247 247 247 247 248 248 249 251 253 255 256 256 256
293 292 292 291 291 290 290 289 288 287 285 284 283 282 279 276 273 270 268 266 265 265 264 264 263 262 261 261 260 260 259 259 259 259 259 259 259 259 259 259 259 259 259 260 260 260 260 260 260 259 259 258 258 257 257 257 256 255 253 251 250 249 249 249 249 249 249 249 249 249 249 249 249 248 248 248 249 250 251 253 255 256 257 257 257
296 294 294 294 294 293 292 291 290 289 288 287 285 283 281 277 274 271 269 267 266 265 264 264 263 262 262 261 261 260 260 259 259 259 259 259 259 259 260 259 259 259 259 259 259 259 259 260 260 260 260 259 258 258 258 257 257 257 256 255 254 252 251 250 250 250 250 250 250 250 250 250 250 250 250 251 252 252 253 254 255 256 256 256 256
299 298 297 297 296 295 294 293 292 292 291 289 287 285 282 278 275 272 270 268 266 264 264 264 263 263 262 261 261 260 259 259 259 259 259 259 259 259 259 259 259 259 259 258 258 259 259 259 259 259 259 259 259 258 258 257 257 257 257 257 256 255 254 253 252 252 251 251 251 251 251 251 251 251 252 253 254 254 255 255 255 254 254 254 254
306 304 303 301 299 297 295 294 293 293 293 291 290 288 285 281 277 275 272 269 267 265 263 263 263 263 262 261 260 259 258 258 258 259 259 259 259 259 259 260 260 259 259 259 259 258 258 258 258 258 258 258 258 258 258 257 257 257 256 256 256 256 255 255 254 254 253 253 253 253 253 253 253 253 253 254 254 255 255 254 253 252 252 252 252
313 311 309 305 302 300 298 297 295 294 294 293 293 292 288 284 281 278 275 272 270 267 265 264 263 262 261 259 258 257 257 256 257 258 259 259 259 259 259 260 260 260 260 260 260 259 259 259 259 259 259 258 258 257 257 257 257 256 256 255 255 255 254 254 253 253 253 253 253 253 253 253 253 253 254 254 254 254 253 252 251 250 250 250 251
316 314 312 310 308 306 304 302 299 297 297 297 296 294 291 288 285 283 280 277 274 270 267 265 264 262 260 259 257 256 255 255 256 257 258 259 259 260 260 260 261 261 261 261 261 261 260 260 260 260 259 259 258 258 257 257 256 256 255 254 254 254 253 253 252 252 251 250 250 250 251 251 251 251 251 251 251 251 251 250 249 248 248 248 249
320 317 316 315 313 311 308 305 303 302 302 300 298 295 293 292 290 286 283 279 276 273 270 267 264 262 261 259 258 256 256 255 256 256 258 259 259 260 261 261 262 262 262 262 263 263 262 262 261 261 260 260 259 258 257 256 255 254 254 253 253 252 252 252 251 250 249 247 246 246 247 248 247 247 247 247 247 247 246 246 246 246 246 246 247
327 325 322 320 319 316 313 310 308 307 306 304 302 301 299 296 293 290 286 281 277 274 271 268 265 263 261 260 258 256 256 255 256 257 258 259 260 261 262 263 264 264 264 264 264 264 263 263 262 261 261 260 259 258 257 256 255 254 253 252 252 251 251 251 250 249 248 246 244 243 244 245 244 244 244 244 244 244 244 244 244 245 245 245 245
331 329 326 325 324 322 319 315 312 310 309 308 308 307 304 301 297 292 287 283 278 274 271 269 266 263 260 258 257 256 255 255 256 258 259 261 262 263 264 265 265 265 265 265 265 264 263 263 262 261 261 260 259 258 257 256 255 254 254 253 252 251 251 251 250 249 248 246 244 242 242 242 242 242 242 242 242 242 242 243 243 243 243 244 244
333 332 330 328 328 327 323 320 317 314 314 314 313 312 309 304 300 294 289 284 278 275 272 269 267 264 261 259 257 257 258 258 260 261 262 263 264 265 265 265 265 265 265 265 265 265 264 264 263 262 261 260 259 258 257 257 256 256 255 254 253 252 251 250 250 248 247 246 244 242 241 241 241 241 241 241 242 241 241 241 241 241 241 242 242
335 334 333 332 331 330 328 325 322 320 320 320 318 316 312 307 302 297 292 287 283 278 275 271 268 265 263 263 262 263 263 264 264 264 264 264 264 264 263 263 263 263 264 264 265 266 266 266 266 265 264 262 261 260 259 258 257 256 256 255 254 253 252 251 249 248 246 244 243 242 242 242 241 240 240 241 241 241 240 239 240 240 240 240 241
336 336 335 334 334 333 331 329 326 323 323 322 320 318 314 308 303 299 295 291 286 280 275 271 269 267 267 267 268 268 268 267 267 266 265 265 264 264 263 263 263 262 262 263 263 264 265 266 266 266 266 265 264 263 261 260 259 259 258 257 255 253 252 251 249 248 246 243 242 242 243 243 242 240 240 240 241 242 241 240 240 241 241 241 241
337 336 336 335 334 333 332 330 326 324 322 321 319 317 313 308 304 300 295 290 284 277 273 271 270 270 270 270 270 271 271 272 271 270 269 268 267 266 266 265 265 264 263 263 262 263 264 265 265 266 266 266 265 264 263 262 261 260 259 259 257 255 253 251 249 248 245 243 242 242 243 244 243 242 240 240 241 242 242 242 241 242 242 242 242
336 336 335 335 334 333 331 330 328 325 322 319 316 314 312 309 305 300 295 289 282 278 275 274 272 271 271 272 274 275 276 276 275 274 273 271 271 270 270 270 269 267 266 265 264 264 264 265 266 266 267 267 267 266 264 262 261 260 260 259 259 257 255 253 251 248 246 244 243 242 243 244 244 243 242 241 241 241 242 243 243 243 244 244 244
334 334 334 334 333 333 331 329 328 325 322 318 315 312 310 307 304 300 294 289 285 281 278 276 274 273 275 277 278 277 277 276 276 276 275 274 273 272 272 273 273 271 269 268 267 266 266 266 267 267 268 269 269 268 266 263 262 261 260 259 259 258 256 254 252 250 248 245 244 243 244 244 244 244 243 242 242 242 243 244 244 244 245 245 245
333 332 333 333 332 332 331 329 327 325 322 319 315 311 308 306 302 298 294 291 288 284 280 277 276 278 280 281 280 278 278 278 278 277 276 275 274 273 273 273 273 273 272 270 269 268 268 268 268 268 268 269 270 269 268 266 264 263 262 261 260 259 258 255 253 251 249 248 246 245 245 245 246 246 245 244 243 242 243 244 245 245 245 245 245
332 332 332 332 331 331 330 329 328 326 323 319 315 311 308 305 302 297 293 291 289 286 282 280 281 282 283 282 281 279 278 278 279 278 278 277 276 275 274 273 273 272 272 272 270 269 268 268 268 267 267 267 268 269 268 267 267 266 265 263 261 260 259 257 254 252 250 249 248 246 246 246 247 247 247 246 245 243 243 244 245 245 246 246 246
331 331 331 331 330 329 329 329 329 327 325 322 317 313 309 307 303 297 292 289 288 286 284 284 283 283 283 282 280 279 279 279 279 279 278 277 276 276 275 274 274 272 271 271 270 269 269 268 267 267 267 267 267 267 267 266 266 265 266 265 264 262 260 258 256 254 251 250 249 248 247 247 247 248 248 248 247 245 244 244 245 246 247 247 248
Height
5653 5651 5650 5649 5648 5647 5647 5646 5645 5645 5644 5644 5643 5642 5642 5641 5641 5641 5641 5640 5639 5638 5638 5636 5637 5637 5636 5637 5637 5637 5637 5637 5638 5639 5639 5638 5638 5637 5638 5638 5638 5639 5639 5640 5641 5642 5642 5644 5646 5645 5646 5648 5649 5650 5651 5653 5653 5654 5655 5656 5656 5658 5659 5661 5663 5663 5664 5666 5667 5668 5670 5671 5673 5674 5676 5677 5679 5680 5681 5682 5684 5685 5687 5688 5689
5648 5646 5645 5644 5643 5642 5641 5640 5640 5639 5638 5638 5638 5637 5636 5636 5636 5635 5636 5636 5634 5634 5633 5632 5632 5631 5631 5632 5631 5630 5631 5632 5633 5634 5633 5632 5632 5632 5632 5632 5631 5632 5633 5633 5634 5636 5637 5639 5641 5640 5641 5643 5644 5644 5646 5647 5648 5648 5649 5650 5651 5652 5653 5655 5657 5657 5658 5660 5661 5662 5664 5665 5667 5668 5670 5671 5673 5674 5675 5677 5678 5679 5680 5682 5683
5641 5640 5639 5638 5637 5636 5635 5634 5633 5633 5633 5632 5632 5631 5631 5630 5631 5630 5629 5630 5630 5628 5628 5627 5626 5625 5625 5625 5624 5625 5626 5627 5627 5628 5627 5627 5627 5627 5627 5626 5625 5624 5626 5628 5628 5630 5632 5634 5635 5635 5636 5637 5638 5638 5639 5641 5641 5641 5643 5644 5645 5646 5648 5650 5651 5651 5652 5653 5655 5656 5658 5659 5661 5663 5664 5665 5667 5668 5669 5671 5672 5673 5674 5675 5677
5634 5634 5633 5632 5631 5630 5629 5628 5627 5626 5626 5626 5626 5625 5625 5624 5624 5624 5622 5623 5623 5622 5622 5621 5620 5619 5619 5619 5619 5620 5621 5621 5621 5622 5622 5622 5622 5622 5622 5621 5620 5618 5620 5622 5624 5625 5626 5627 5629 5629 5630 5631 5631 5632 5633 5634 5634 5635 5636 5637 5638 5640 5642 5644 5645 5645 5646 5648 5650 5651 5651 5653 5655 5658 5659 5659 5661 5662 5664 5665 5666 5667 5668 5669 5671
5628 5627 5626 5625 5624 5623 5622 5621 5620 5619 5619 5619 5619 5618 5618 5618 5618 5617 5616 5616 5616 5616 5616 5615 5614 5613 5613 5613 5613 5614 5615 5616 5616 5616 5617 5616 5616 5616 5616 5616 5615 5614 5615 5616 5617 5618 5619 5620 5621 5622 5622 5623 5624 5625 5626 5627 5627 5628 5630 5631 5632 5634 5635 5638 5638 5639 5640 5642 5644 5643 5646 5648 5650 5653 5653 5653 5655 5656 5658 5659 5660 5660 5661 5663 5664
5621 5620 5618 5618 5617 5616 5615 5614 5613 5612 5612 5611 5611 5611 5611 5611 5611 5610 5609 5609 5608 5608 5609 5609 5608 5607 5607 5607 5607 5608 5609 5609 5610 5610 5609 5609 5610 5609 5609 5610 5610 5609 5609 5610 5611 5611 5612 5612 5613 5613 5614 5615 5617 5617 5618 5620 5620 5622 5623 5624 5626 5627 5628 5630 5632 5633 5633 5636 5637 5637 5640 5642 5643 5646 5646 5646 5649 5650 5651 5652 5653 5654 5655 5656 5658
5611 5611 5611 5610 5609 5608 5607 5606 5605 5604 5603 5603 5603 5602 5603 5603 5603 5603 5602 5601 5601 5601 5601 5601 5600 5600 5600 5600 5600 5601 5601 5602 5603 5602 5601 5601 5602 5602 5602 5602 5603 5603 5603 5604 5605 5605 5605 5606 5606 5606 5608 5609 5610 5611 5612 5614 5614 5615 5617 5618 5619 5620 5621 5624 5626 5626 5626 5629 5631 5631 5634 5635 5637 5639 5639 5640 5642 5643 5645 5646 5647 5648 5649 5650 5651
5600 5601 5601 5601 5600 5599 5599 5598 5597 5596 5595 5595 5594 5594 5594 5594 5594 5594 5594 5593 5593 5593 5593 5593 5592 5592 5592 5593 5593 5593 5594 5594 5594 5593 5593 5594 5595 5595 5595 5595 5596 5596 5596 5597 5598 5598 5598 5599 5599 5600 5601 5602 5603 5604 5606 5607 5608 5609 5610 5611 5612 5613 5615 5617 5620 5620 5620 5623 5624 5625 5627 5628 5630 5632 5632 5634 5636 5636 5638 5639 5640 5641 5642 5643 5645
5590 5589 5589 5590 5590 5590 5590 5589 5589 5588 5587 5587 5586 5585 5585 5585 5585 5585 5585 5585 5585 5585 5584 5584 5584 5584 5584 5584 5585 5585 5585 5586 5586 5585 5586 5586 5587 5588 5588 5589 5589 5589 5590 5591 5591 5591 5592 5593 5592 5593 5595 5596 5596 5597 5598 5600 5601 5602 5603 5604 5605 5606 5608 5610 5612 5614 5614 5615 5617 5618 5620 5622 5623 5625 5626 5627 5629 5630 5632 5632 5633 5634 5635 5637 5638
5580 5579 5579 5579 5580 5580 5580 5580 5579 5579 5579 5578 5577 5577 5577 5576 5576 5576 5576 5576 5576 5576 5576 5575 5575 5575 5575 5576 5576 5577 5577 5578 5577 5577 5577 5578 5579 5580 5581 5582 5582 5582 5583 5584 5585 5585 5586 5586 5585 5586 5588 5588 5589 5589 5591 5593 5594 5594 5595 5596 5597 5599 5601 5602 5605 5607 5607 5608 5609 5611 5613 5615 5616 5618 5620 5620 5621 5623 5624 5625 5626 5627 5628 5630 5632
5571 5570 5569 5569 5569 5570 5570 5570 5570 5569 5569 5569 5568 5567 5567 5567 5567 5566 5566 5566 5566 5566 5566 5566 5566 5566 5566 5566 5567 5568 5568 5569 5569 5569 5569 5569 5570 5571 5572 5574 5574 5575 5577 5577 5578 5578 5578 5579 5578 5579 5580 5580 5581 5582 5583 5585 5586 5587 5588 5589 5590 5591 5593 5595 5597 5599 5600 5601 5602 5604 5606 5608 5609 5611 5613 5613 5614 5615 5617 5619 5621 5621 5622 5624 5626
5563 5560 5559 5558 5558 5558 5559 5558 5559 5559 5559 5559 5558 5557 5557 5556 5557 5556 5556 5556 5556 5556 5556 5556 5556 5556 5556 5556 5557 5558 5559 5559 5560 5560 5560 5560 5561 5562 5563 5565 5566 5567 5569 5570 5571 5571 5571 5571 5571 5572 5573 5573 5574 5575 5575 5576 5578 5579 5580 5581 5583 5584 5585 5587 5589 5591 5593 5594 5595 5597 5599 5601 5602 5604 5605 5605 5607 5608 5609 5611 5615 5616 5615 5617 5620
5554 5552 5549 5548 5547 5546 5546 5546 5546 5546 5547 5548 5548 5547 5547 5546 5545 5546 5545 5545 5545 5545 5546 5546 5546 5546 5546 5546 5547 5548 5549 5549 5550 5550 5550 5551 5551 5552 5554 5555 5557 5559 5560 5562 5562 5562 5562 5563 5564 5565 5566 5566 5567 5568 5567 5567 5569 5571 5573 5574 5575 5576 5578 5579 5582 5584 5585 5586 5588 5589 5591 5593 5594 5596 5597 5598 5599 5600 5601 5603 5607 5610 5608 5609 5613
5544 5543 5541 5539 5537 5535 5535 5534 5534 5534 5534 5535 5536 5536 5536 5535 5535 5535 5534 5534 5534 5534 5535 5535 5535 5535 5535 5535 5536 5537 5538 5539 5539 5540 5540 5541 5542 5542 5544 5545 5547 5549 5551 5552 5552 5552 5552 5555 5557 5556 5558 5559 5559 5559 5559 5559 5560 5562 5564 5566 5567 5568 5570 5571 5574 5576 5577 5578 5579 5581 5583 5586 5587 5588 5589 5591 5592 5593 5594 5595 5598 5604 5603 5601 5607
5534 5533 5531 5530 5528 5527 5525 5524 5523 5523 5522 5522 5523 5523 5524 5524 5524 5523 5523 5523 5523 5523 5523 5524 5524 5524 5523 5524 5524 5525 5526 5527 5528 5529 5530 5530 5531 5532 5534 5535 5536 5539 5540 5542 5542 5542 5543 5546 5547 5547 5550 5551 5550 5551 5552 5552 5552 5553 5555 5558 5560 5561 5561 5563 5565 5567 5569 5570 5571 5573 5575 5577 5579 5581 5582 5583 5585 5586 5587 5588 5590 5596 5596 5594 5599
5524 5522 5521 5519 5518 5517 5515 5514 5513 5512 5512 5511 5511 5511 5511 5511 5512 5512 5512 5511 5511 5511 5511 5512 5512 5512 5512 5512 5513 5513 5514 5515 5517 5518 5519 5520 5520 5522 5523 5524 5526 5528 5529 5531 5532 5533 5533 5535 5536 5538 5540 5542 5542 5543 5544 5545 5545 5544 5546 5549 5552 5553 5554 5555 5557 5559 5561 5562 5563 5564 5566 5569 5571 5573 5574 5575 5577 5579 5579 5580 5582 5587 5589 5587 5591
5513 5512 5510 5509 5507 5506 5505 5503 5502 5501 5501 5500 5500 5499 5499 5499 5500 5500 5500 5500 5499 5498 5498 5499 5499 5500 5500 5501 5502 5502 5503 5504 5505 5506 5507 5508 5509 5510 5512 5513 5515 5516 5518 5520 5521 5522 5523 5524 5526 5528 5530 5531 5532 5534 5535 5537 5537 5537 5539 5541 5543 5545 5546 5548 5549 5551 5553 5554 5555 5555 5557 5560 5562 5564 5566 5567 5569 5571 5572 5573 5574 5579 5581 5580 5583
5502 5501 5499 5497 5496 5496 5494 5492 5491 5490 5488 5488 5487 5487 5487 5487 5487 5487 5487 5488 5488 5487 5486 5486 5486 5487 5488 5489 5490 5491 5492 5492 5493 5494 5495 5496 5497 5499 5500 5502 5504 5505 5507 5509 5510 5512 5513 5514 5516 5518 5519 5520 5522 5524 5525 5526 5527 5528 5531 5533 5535 5536 5537 5539 5541 5543 5545 5545 5547 5548 5549 5551 5554 5556 5558 5559 5561 5563 5564 5565 5566 5570 5573 5572 5574
5491 5490 5488 5486 5484 5483 5482 5481 5479 5478 5476 5475 5475 5474 5474 5473 5474 5474 5474 5475 5475 5475 5475 5474 5474 5474 5475 5476 5477 5479 5480 5481 5482 5483 5483 5484 5485 5487 5489 5490 5492 5494 5496 5497 5499 5501 5502 5503 5505 5507 5508 5509 5511 5513 5514 5516 5516 5518 5521 5523 5526 5526 5526 5529 5532 5534 5536 5537 5539 5541 5542 5544 5546 5548 5549 5551 5553 5554 5556 5558 5558 5561 5565 5565 5566
5480 5479 5477 5475 5472 5471 5470 5469 5467 5465 5464 5463 5462 5462 5461 5460 5460 5460 5460 5461 5462 5463 5463 5463 5463 5463 5463 5464 5465 5466 5467 5468 5469 5470 5472 5473 5473 5475 5477 5479 5481 5482 5484 5485 5487 5489 5490 5492 5494 5496 5497 5498 5501 5502 5504 5505 5505 5507 5510 5513 5515 5516 5516 5519 5522 5524 5526 5528 5531 5533 5535 5536 5538 5539 5541 5543 5545 5546 5547 5549 5550 5552 5555 5557 5557
5469 5467 5465 5464 5462 5459 5459 5457 5454 5452 5451 5451 5450 5450 5449 5448 5448 5447 5447 5448 5448 5449 5450 5450 5451 5451 5451 5452 5452 5453 5453 5455 5456 5457 5459 5460 5462 5463 5465 5467 5469 5471 5472 5474 5475 5477 5478 5480 5482 5485 5486 5488 5489 5491 5493 5493 5494 5496 5500 5502 5504 5505 5505 5508 5511 5513 5515 5517 5521 5524 5527 5528 5529 5531 5533 5535 5536 5537 5539 5540 5541 5543 5546 5548 5549
5458 5456 5454 5452 5451 5448 5447 5445 5443 5440 5439 5438 5437 5437 5437 5436 5436 5435 5435 5435 5435 5436 5436 5437 5437 5437 5438 5439 5440 5440 5440 5441 5443 5444 5445 5447 5449 5451 5453 5455 5457 5458 5460 5462 5464 5465 5467 5468 5470 5473 5475 5477 5478 5480 5481 5482 5483 5486 5489 5491 5493 5494 5494 5497 5500 5502 5505 5507 5509 5512 5516 5519 5519 5521 5524 5525 5527 5528 5529 5531 5533 5534 5536 5538 5539
5446 5444 5441 5439 5438 5436 5434 5432 5431 5429 5426 5425 5424 5423 5424 5423 5423 5422 5422 5421 5421 5422 5423 5424 5424 5424 5424 5425 5426 5428 5428 5428 5429 5430 5432 5434 5436 5438 5440 5443 5445 5447 5448 5450 5451 5453 5455 5457 5459 5461 5463 5465 5467 5469 5470 5471 5473 5476 5479 5481 5482 5483 5484 5486 5488 5492 5495 5496 5497 5500 5505 5508 5509 5510 5512 5514 5516 5518 5520 5521 5523 5524 5526 5528 5529
5434 5432 5429 5427 5425 5423 5421 5419 5417 5416 5414 5412 5411 5410 5410 5409 5409 5409 5409 5408 5408 5408 5409 5410 5411 5412 5411 5412 5412 5414 5416 5417 5417 5418 5419 5421 5423 5425 5427 5430 5432 5434 5436 5438 5439 5441 5443 5445 5448 5449 5451 5453 5455 5457 5459 5461 5463 5465 5468 5470 5471 5472 5473 5475 5478 5481 5484 5485 5487 5489 5494 5498 5498 5498 5501 5503 5505 5507 5509 5510 5511 5513 5516 5517 5518
5423 5420 5418 5416 5413 5411 5408 5406 5404 5402 5401 5399 5398 5397 5396 5395 5394 5394 5395 5395 5394 5394 5395 5397 5398 5399 5400 5400 5400 5401 5402 5404 5406 5407 5407 5408 5410 5412 5414 5416 5419 5421 5424 5426 5427 5429 5431 5434 5436 5438 5439 5441 5443 5446 5448 5450 5453 5454 5456 5459 5460 5460 5462 5465 5467 5470 5473 5475 5476 5479 5483 5486 5486 5487 5489 5492 5494 5496 5498 5499 5500 5501 5504 5506 5507
5411 5409 5407 5404 5401 5398 5396 5394 5392 5390 5388 5386 5384 5383 5382 5381 5381 5380 5380 5380 5381 5381 5381 5383 5384 5385 5387 5388 5389 5389 5390 5391 5393 5395 5396 5397 5398 5399 5401 5402 5405 5407 5410 5413 5415 5417 5419 5421 5424 5426 5428 5430 5432 5434 5437 5440 5442 5443 5445 5447 5448 5449 5451 5454 5456 5459 5462 5464 5466 5469 5472 5474 5475 5476 5480 5482 5484 5485 5486 5487 5489 5490 5492 5493 5495
5399 5396 5394 5391 5388 5385 5383 5380 5378 5377 5375 5372 5370 5369 5369 5368 5368 5367 5366 5366 5367 5368 5368 5369 5370 5371 5373 5374 5376 5378 5379 5379 5380 5382 5384 5385 5386 5387 5389 5390 5391 5393 5396 5398 5401 5404 5406 5409 5411 5413 5415 5418 5420 5422 5425 5428 5430 5431 5433 5434 5436 5438 5440 5443 5446 5449 5452 5453 5455 5459 5461 5462 5463 5467 5471 5472 5473 5474 5476 5477 5479 5479 5481 5482 5484
5387 5383 5380 5378 5375 5372 5370 5368 5365 5363 5361 5358 5356 5355 5354 5354 5354 5354 5354 5354 5353 5354 5356 5357 5357 5358 5359 5360 5362 5365 5367 5368 5368 5369 5371 5373 5375 5376 5377 5378 5380 5381 5383 5384 5387 5390 5393 5396 5399 5401 5403 5405 5408 5411 5414 5416 5418 5419 5421 5422 5424 5426 5429 5431 5434 5437 5440 5442 5444 5447 5450 5451 5453 5457 5461 5462 5462 5464 5466 5467 5469 5469 5470 5472 5474
5373 5370 5367 5364 5361 5358 5356 5354 5351 5349 5347 5345 5343 5341 5340 5340 5340 5340 5340 5340 5340 5341 5343 5345 5346 5346 5347 5348 5350 5352 5354 5356 5357 5358 5359 5361 5362 5364 5366 5367 5368 5369 5371 5372 5374 5376 5378 5381 5384 5387 5390 5393 5395 5399 5402 5404 5405 5406 5409 5410 5412 5414 5417 5420 5422 5425 5429 5432 5434 5437 5439 5441 5443 5446 5449 5450 5451 5453 5455 5457 5459 5459 5459 5461 5463
5358 5355 5353 5350 5347 5344 5341 5339 5336 5333 5331 5330 5329 5327 5326 5326 5326 5326 5325 5325 5325 5327 5329 5332 5334 5334 5335 5336 5337 5340 5342 5344 5346 5347 5348 5350 5351 5352 5354 5355 5356 5357 5359 5360 5362 5363 5365 5367 5370 5373 5376 5379 5382 5387 5389 5391 5392 5394 5396 5399 5400 5403 5406 5408 5410 5414 5417 5420 5424 5426 5428 5431 5433 5435 5437 5439 5440 5442 5444 5447 5449 5449 5449 5451 5452
5344 5342 5340 5337 5334 5330 5327 5324 5321 5318 5316 5314 5313 5312 5311 5312 5312 5311 5311 5310 5310 5312 5314 5317 5320 5322 5322 5324 5325 5327 5329 5331 5334 5335 5337 5338 5340 5341 5342 5343 5344 5345 5346 5348 5350 5352 5353 5355 5357 5359 5362 5364 5368 5372 5375 5377 5378 5381 5383 5385 5388 5391 5394 5396 5398 5402 5406 5409 5412 5414 5416 5419 5421 5423 5426 5429 5430 5432 5434 5437 5438 5438 5439 5440 5441
5330 5328 5326 5323 5320 5317 5314 5310 5307 5304 5301 5298 5296 5295 5296 5298 5298 5296 5295 5295 5296 5297 5299 5303 5306 5308 5309 5311 5313 5315 5317 5319 5321 5324 5325 5327 5328 5330 5331 5332 5333 5333 5334 5336 5338 5339 5341 5343 5344 5347 5349 5351 5354 5357 5360 5362 5364 5367 5369 5371 5374 5378 5381 5384 5387 5390 5394 5397 5400 5402 5404 5406 5409 5412 5416 5418 5419 5421 5423 5425 5426 5427 5428 5428 5429
5317 5313 5310 5307 5305 5302 5299 5295 5292 5290 5286 5283 5281 5280 5280 5281 5282 5281 5280 5281 5281 5282 5285 5288 5291 5293 5295 5297 5300 5303 5304 5306 5308 5311 5313 5315 5316 5318 5319 5320 5321 5322 5323 5325 5326 5327 5329 5330 5332 5334 5336 5339 5342 5343 5344 5346 5349 5352 5354 5356 5360 5364 5368 5371 5374 5378 5381 5385 5387 5389 5391 5394 5397 5401 5404 5406 5408 5410 5412 5412 5413 5415 5416 5416 5418
5306 5301 5297 5294 5291 5288 5285 5281 5278 5275 5272 5270 5268 5266 5264 5264 5264 5264 5265 5266 5266 5267 5270 5273 5276 5279 5281 5284 5286 5289 5291 5294 5296 5299 5301 5303 5304 5305 5306 5308 5310 5311 5312 5314 5315 5315 5317 5318 5319 5321 5323 5327 5329 5330 5331 5332 5334 5336 5339 5340 5344 5349 5353 5357 5361 5364 5367 5371 5374 5376 5379 5382 5385 5388 5391 5394 5396 5398 5400 5401 5401 5402 5404 5405 5406
5295 5289 5285 5282 5279 5275 5272 5269 5266 5263 5261 5258 5255 5253 5251 5250 5249 5249 5250 5252 5252 5254 5256 5259 5262 5266 5268 5270 5272 5275 5278 5281 5284 5287 5289 5291 5292 5293 5294 5295 5297 5299 5300 5302 5303 5304 5305 5306 5307 5308 5310 5313 5316 5317 5318 5319 5320 5322 5323 5325 5328 5333 5337 5342 5346 5349 5353 5356 5360 5363 5365 5369 5372 5375 5378 5381 5383 5385 5387 5388 5389 5390 5392 5393 5394
5285 5280 5276 5272 5269 5265 5262 5259 5256 5253 5250 5247 5244 5242 5240 5238 5237 5236 5237 5239 5239 5242 5244 5246 5249 5252 5255 5257 5259 5262 5265 5269 5272 5275 5277 5278 5280 5281 5282 5282 5285 5287 5288 5289 5291 5292 5293 5295 5296 5297 5298 5301 5303 5303 5304 5306 5307 5309 5310 5311 5313 5317 5322 5327 5330 5333 5336 5341 5345 5348 5352 5355 5358 5362 5365 5367 5369 5371 5373 5374 5376 5378 5380 5381 5383
5277 5273 5268 5264 5260 5257 5254 5250 5247 5244 5241 5237 5235 5233 5230 5229 5228 5227 5226 5227 5229 5231 5233 5235 5237 5240 5243 5245 5247 5250 5253 5257 5260 5263 5265 5266 5268 5269 5270 5271 5273 5275 5276 5277 5279 5280 5281 5282 5284 5285 5286 5288 5290 5291 5291 5292 5294 5295 5296 5297 5299 5303 5308 5312 5314 5316 5321 5325 5329 5333 5337 5340 5343 5347 5351 5353 5355 5357 5359 5361 5363 5365 5367 5369 5371
5270 5265 5261 5257 5253 5249 5246 5242 5239 5236 5233 5230 5227 5225 5223 5222 5221 5219 5218 5219 5220 5222 5224 5226 5228 5230 5232 5234 5236 5239 5243 5247 5250 5252 5254 5256 5257 5258 5259 5260 5262 5263 5264 5265 5266 5268 5269 5270 5271 5272 5273 5275 5278 5278 5278 5279 5280 5282 5282 5283 5285 5289 5294 5298 5300 5303 5307 5311 5315 5318 5322 5325 5329 5334 5336 5338 5340 5343 5346 5348 5351 5353 5355 5357 5360
5264 5259 5254 5250 5246 5242 5239 5235 5231 5228 5226 5224 5221 5219 5217 5215 5215 5214 5213 5212 5213 5214 5216 5218 5220 5222 5224 5226 5228 5231 5235 5238 5240 5242 5244 5246 5247 5248 5249 5250 5252 5253 5253 5254 5254 5256 5257 5258 5259 5260 5261 5262 5264 5265 5265 5266 5268 5268 5267 5269 5272 5277 5281 5283 5286 5290 5294 5298 5302 5306 5309 5313 5317 5321 5323 5325 5327 5331 5334 5336 5339 5341 5343 5346 5350
5259 5254 5250 5245 5240 5236 5232 5229 5225 5222 5220 5218 5216 5214 5212 5211 5210 5209 5208 5207 5207 5208 5210 5212 5214 5215 5217 5219 5222 5224 5227 5230 5232 5234 5236 5237 5238 5239 5240 5241 5242 5243 5243 5244 5244 5244 5246 5246 5247 5248 5249 5249 5251 5252 5252 5253 5255 5255 5253 5255 5261 5265 5268 5271 5274 5278 5281 5286 5290 5294 5298 5302 5306 5309 5311 5313 5316 5319 5323 5325 5327 5329 5332 5336 5339
5254 5249 5244 5240 5236 5232 5227 5223 5220 5217 5215 5213 5211 5210 5208 5207 5206 5205 5204 5203 5203 5204 5205 5206 5208 5210 5212 5214 5216 5218 5221 5223 5225 5226 5228 5229 5230 5231 5232 5232 5233 5233 5234 5234 5234 5234 5234 5235 5235 5236 5237 5238 5239 5240 5240 5240 5242 5241 5240 5244 5250 5254 5257 5260 5263 5266 5269 5275 5279 5284 5288 5291 5294 5297 5299 5301 5304 5308 5311 5313 5315 5319 5321 5324 5325
5252 5247 5241 5237 5233 5229 5225 5221 5217 5214 5212 5210 5208 5206 5205 5204 5203 5202 5201 5200 5200 5200 5201 5203 5204 5206 5208 5210 5212 5213 5215 5217 5218 5220 5221 5222 5222 5223 5224 5224 5224 5224 5224 5224 5224 5224 5224 5225 5225 5225 5226 5227 5228 5229 5229 5230 5230 5229 5230 5234 5239 5244 5246 5249 5253 5256 5259 5264 5268 5272 5276 5280 5283 5285 5287 5289 5292 5296 5300 5302 5304 5307 5308 5310 5311
5249 5245 5240 5235 5231 5227 5224 5220 5216 5212 5210 5208 5206 5204 5203 5201 5200 5199 5198 5198 5198 5198 5199 5200 5201 5203 5204 5206 5207 5209 5210 5212 5213 5214 5215 5215 5215 5216 5216 5216 5216 5216 5216 5216 5216 5216 5216 5216 5216 5216 5217 5218 5218 5219 5220 5220 5220 5220 5220 5224 5229 5233 5236 5239 5242 5246 5249 5253 5256 5260 5265 5268 5271 5273 5276 5279 5281 5284 5288 5291 5292 5293 5295 5297 5300
5247 5242 5238 5233 5229 5226 5222 5218 5214 5211 5208 5206 5204 5203 5201 5200 5199 5198 5197 5197 5197 5197 5197 5198 5199 5200 5201 5202 5203 5204 5205 5206 5207 5208 5208 5208 5209 5209 5209 5210 5210 5210 5210 5210 5209 5209 5209 5209 5209 5209 5209 5210 5210 5211 5211 5212 5212 5212 5212 5215 5219 5222 5225 5228 5232 5235 5239 5242 5245 5249 5252 5255 5258 5262 5266 5269 5270 5272 5278 5281 5280 5281 5283 5286 5289
5245 5240 5236 5232 5228 5224 5221 5218 5214 5210 5207 5205 5203 5201 5200 5199 5198 5197 5196 5196 5196 5196 5196 5196 5197 5197 5198 5199 5199 5200 5200 5201 5202 5202 5203 5203 5203 5204 5204 5204 5204 5204 5204 5204 5204 5204 5204 5204 5204 5204 5204 5204 5204 5204 5204 5204 5204 5205 5205 5207 5210 5213 5215 5218 5221 5224 5228 5231 5233 5236 5238 5241 5246 5250 5254 5257 5259 5262 5267 5270 5270 5270 5272 5276 5279
5244 5239 5234 5230 5226 5223 5219 5216 5213 5210 5207 5204 5202 5200 5199 5198 5197 5196 5195 5194 5194 5194 5194 5194 5195 5195 5195 5195 5196 5196 5196 5197 5197 5198 5198 5198 5198 5198 5199 5199 5199 5199 5199 5199 5199 5199 5199 5199 5199 5199 5199 5199 5199 5199 5198 5198 5198 5198 5199 5200 5202 5204 5206 5209 5211 5214 5217 5220 5221 5224 5226 5230 5234 5238 5241 5245 5248 5251 5254 5257 5259 5260 5263 5267 5270
5242 5238 5233 5229 5225 5221 5218 5215 5212 5209 5206 5204 5201 5199 5198 5196 5195 5194 5194 5193 5193 5192 5192 5192 5192 5192 5193 5193 5193 5193 5193 5193 5193 5193 5194 5194 5194 5194 5194 5193 5193 5193 5193 5193 5193 5193 5193 5194 5194 5194 5194 5194 5194 5193 5193 5193 5193 5193 5193 5194 5195 5196 5198 5200 5202 5205 5207 5209 5211 5213 5216 5218 5222 5225 5229 5233 5236 5239 5242 5245 5248 5251 5254 5257 5260
5241 5236 5232 5228 5224 5220 5217 5214 5211 5208 5205 5203 5200 5198 5197 5195 5194 5193 5192 5191 5191 5191 5190 5190 5190 5190 5190 5190 5190 5190 5190 5190 5190 5190 5190 5190 5190 5190 5189 5189 5189 5188 5188 5188 5188 5188 5188 5189 5189 5189 5189 5188 5188 5188 5188 5187 5187 5187 5188 5188 5189 5190 5191 5193 5194 5196 5197 5199 5201 5203 5206 5209 5211 5214 5218 5221 5226 5230 5233 5235 5237 5240 5244 5247 5250
5239 5235 5230 5226 5223 5219 5216 5213 5210 5207 5204 5201 5199 5197 5195 5194 5192 5191 5190 5190 5189 5189 5189 5189 5188 5188 5188 5188 5188 5188 5187 5187 5187 5187 5186 5186 5186 5186 5186 5185 5185 5184 5184 5184 5184 5183 5183 5184 5184 5184 5184 5183 5183 5183 5183 5182 5182 5182 5182 5183 5183 5184 5185 5187 5187 5188 5189 5191 5193 5195 5198 5200 5203 5205 5208 5211 5216 5220 5223 5224 5226 5229 5233 5237 5239
5237 5233 5229 5225 5221 5218 5214 5211 5208 5205 5203 5200 5197 5195 5193 5192 5190 5189 5188 5188 5187 5187 5186 5186 5186 5186 5186 5185 5185 5185 5184 5184 5184 5183 5183 5183 5183 5182 5182 5181 5181 5181 5180 5180 5180 5179 5179 5179 5179 5179 5179 5179 5178 5178 5178 5178 5178 5178 5178 5178 5178 5179 5180 5181 5181 5182 5183 5184 5186 5188 5190 5192 5194 5196 5198 5202 5206 5209 5212 5214 5216 5218 5222 5225 5228
5235 5231 5227 5224 5220 5216 5213 5210 5207 5204 5201 5198 5196 5193 5191 5190 5188 5187 5186 5186 5185 5185 5184 5184 5183 5183 5183 5182 5182 5181 5181 5181 5180 5180 5180 5179 5179 5179 5178 5178 5177 5177 5177 5176 5176 5176 5175 5175 5175 5175 5174 5174 5174 5174 5174 5173 5173 5173 5173 5173 5174 5174 5175 5175 5176 5177 5178 5178 5180 5181 5183 5184 5186 5188 5190 5193 5196 5199 5202 5205 5207 5209 5212 5215 5218